Regional Weather Roundup
Issued by NWS Cleveland, OH

Home | Current Version | Previous Version | Graphics & Text | Print | Product List | Glossary On
Versions: 1 2 3 4 5 6 7 8 9 10 11 12 13 14 15 16 17 18 19 20 21 22 23 24 25 26 27 28 29 30 31 32 33 34 35 36 37 38 39 40 41 42 43 44 45 46 47 48 49 50
083
ASUS41 KCLE 162210
RWRCLE
OHIO REGIONAL WEATHER ROUNDUP
NATIONAL WEATHER SERVICE WILMINGTON, OH
600 PM EDT MON OCT 16 2017

NOTE: "FAIR" INDICATES FEW OR NO CLOUDS BELOW 12,000 FEET WITH NO
SIGNIFICANT WEATHER AND/OR OBSTRUCTIONS TO VISIBILITY.

OHZ001>008-015>018-024>027-034-035-043-044-162300-
   NORTHWEST OHIO

CITY           SKY/WX    TMP DP  RH WIND       PRES   REMARKS
DEFIANCE       FAIR      57  38  48 CALM      30.26F
FINDLAY        FAIR      56  38  50 W6        30.26S
TOLEDO EXPRESS CLOUDY    57  41  55 NW5       30.26S
TOLEDO EXEC    CLOUDY    56  39  53 W3        30.27S
LIMA           CLOUDY    55  39  54 CALM      30.27S
$$

OHZ009>014-019>023-028>033-038-089-162300-
   NORTHEAST OHIO

CITY           SKY/WX    TMP DP  RH WIND       PRES   REMARKS
CLE-HOPKINS    FAIR      54  34  46 W8        30.29F
CLE-LAKEFRONT  FAIR      53  33  46 W7        30.27S
CUY CO. ARPT   PTCLDY    54  32  43 NW10      30.28S
LORAIN-ELYRIA  FAIR      54  30  40 N5        30.28F
ASHTABULA      FAIR      52  35  52 NW9       30.27R
AKRON-CANTON   FAIR      54  31  41 NW10      30.26R
WOOSTER        FAIR      53  34  48 N5        30.27S
MANSFIELD      FAIR      54  35  48 NW6       30.26F
YOUNGSTOWN     FAIR      52  29  41 NW12      30.25R
$$

OHZ042-051>053-060>062-070>072-077>081-162300-
  SOUTHWEST OHIO

CITY           SKY/WX    TMP DP  RH WIND       PRES   REMARKS
CINC-COVINGTON FAIR      59  37  44 N6        30.27F
CINC-LUNKEN    FAIR      61  36  39 N5        30.29S
HAMILTON       FAIR      61  38  42 N7        30.29S
DAYTON         FAIR      57  37  47 NW9       30.28S
WRIGHT-PAT AFB PTCLDY    57  34  40 N5        30.27S
DAYTON GENERAL CLOUDY    58  34  40 N6        30.27S
WILMINGTON     FAIR      55  37  50 NW7       30.27F
$$

OHZ036-037-039>041-045>050-054>059-063>069-073>076-082>088-162300-
  CENTRAL AND SOUTHEAST OHIO

CITY           SKY/WX    TMP DP  RH WIND       PRES   REMARKS
COLUMBUS       FAIR      57  38  48 N8        30.26F
OSU AIRPORT    FAIR      56  42  59 N5        30.26F
BOLTON FIELD   PTCLDY    57  39  51 N6        30.27F
RICKENBACK AFB FAIR      56  37  48 NW6       30.26F
NEWARK         FAIR      56  36  47 NW7       30.26S
MARION         MOCLDY    55  37  50 N6        30.27
LANCASTER      MOCLDY    58  38  47 N7        30.27S
ZANESVILLE     FAIR      56  36  47 NW7       30.26S
NEW PHILLY     MOCLDY    57  36  45 N9        30.26S
$$




USA.gov is the U.S. government's official web portal to all federal, state and local government web resources and services.